Regional Weather Roundup
Issued by NWS

Home | Current Version | Previous Version | Graphics & Text | Print | Product List | Glossary On
Versions: 1 2 3 4 5 6 7 8 9 10 11 12 13 14 15 16 17 18 19 20 21 22 23 24 25 26 27 28 29 30 31 32 33 34 35 36 37 38 39 40 41 42 43 44 45 46 47 48 49 50
000
ASUS43 KFSD 261502
RWRSD

WEATHER ROUNDUP FOR SOUTH DAKOTA
NATIONAL WEATHER SERVICE SIOUX FALLS SD
1000 AM CDT SUN APR 26 2015

NOTE: "FAIR" INDICATES FEW OR NO CLOUDS BELOW 12,000 FEET WITH NO
SIGNIFICANT WEATHER AND/OR OBSTRUCTIONS TO VISIBILITY.


SDZ001>005-009-010-012>017-261600-
NORTHWEST AND NORTH CENTRAL SOUTH DAKOTA

CITY           SKY/WX    TMP DP  RH WIND       PRES   REMARKS
BUFFALO          N/A     43  41  93 NE16      29.94R
FAITH            N/A     49  44  83 SE16      29.98R
MOBRIDGE       CLOUDY    53  42  66 SE10      30.01R
$$

SDZ012>016-024>037-041>051-057-063-072>074-261600-
SOUTHWEST AND SOUTH CENTRAL SOUTH DAKOTA

CITY           SKY/WX    TMP DP  RH WIND       PRES   REMARKS
RAPID CTY ARPT LGT RAIN  43  42  97 N14       29.96R FOG
PIERRE         PTSUNNY   53  43  68 E14       30.01R
CUSTER         LGT RAIN  41  39  93 NE9       29.93S VSB 1/4
ELLSWORTH AFB  LGT RAIN  43  43 100 NW13      29.96R FOG
PHILIP         CLOUDY    55  43  63 SE16      29.98R
PINE RIDGE     CLOUDY    46  42  86 SE15      29.95R
WINNER         CLOUDY    52  40  63 S9        30.03R
$$

SDZ004>011-016>023-039-040-261600-
NORTHEAST SOUTH DAKOTA

CITY           SKY/WX    TMP DP  RH WIND       PRES   REMARKS
ABERDEEN       MOSUNNY   57  38  48 S12       30.08R
WATERTOWN      SUNNY     53  38  56 S3        30.07R
BROOKINGS      SUNNY     52  39  62 E8        30.08S
SISSETON         N/A     48  33  56 VRB6      30.10R
$$

SDZ017-020-022-023-036>040-048>070-261600-
SOUTHEAST SOUTH DAKOTA

CITY           SKY/WX    TMP DP  RH WIND       PRES   REMARKS
SIOUX FALLS    MOSUNNY   52  40  63 E7        30.08R
HURON          SUNNY     54  38  54 SE9       30.07R
MITCHELL       SUNNY     53  41  63 SE14      30.07R
YANKTON        SUNNY     52  36  54 E14G20    30.06S
$$

ABBREVIATIONS USED IN REMARKS
   TC - TEMPERATURE IN CELSIUS
  WCI - WIND CHILL INDEX
   HX - HEAT INDEX
  VSB - VISIBILITY




USA.gov is the U.S. government's official web portal to all federal, state and local government web resources and services.